DW2485 Weather Reports


time (UTC)temp
F
wind
direction
speed
knots
gust
knots
rain 1hr
in
rain 24hr
in
rain mn
in
humidity
%
barometer
mb
20260504040506 56 251 0.9 0.9 0.00 0.01 0.01 100 1008.8
20260504040006 56 251 1.7 2.6 0.00 0.01 0.01 100 1008.9
20260504035506 57 223 1.7 1.7 0.00 0.01 0.01 100 1009.0
20260504035006 57 284 0.9 1.7 0.00 0.01 0.01 100 1009.1
20260504034006 57 277 0.9 1.7 0.00 0.01 0.01 100 1009.1
20260504032005 60 220 2.6 5.2 0.00 0.01 0.01 100 1009.2
20260504031006 61 282 1.7 2.6 0.00 0.01 0.01 100 1009.0
20260504030506 62 280 1.7 1.7 0.00 0.01 0.01 100 1009.0
20260504030005 62 288 0.9 1.7 0.00 0.01 0.01 100 1008.9
20260504024505 63 291 1.7 2.6 0.00 0.01 0.01 100 1008.7
20260504024005 63 285 1.7 1.7 0.00 0.01 0.01 100 1008.7
20260504023505 63 269 2.6 2.6 0.00 0.01 0.01 100 1008.8
20260504022505 64 301 2.6 4.3 0.00 0.01 0.01 100 1008.6
20260504021505 64 306 3.5 6.1 0.00 0.01 0.01 100 1008.5
20260504015505 66 274 4.3 6.1 0.00 0.01 0.01 100 1008.4
20260504015005 66 277 5.2 6.1 0.00 0.01 0.01 100 1008.3
20260504014505 66 272 4.3 6.1 0.00 0.01 0.01 100 1008.4
20260504014005 67 267 4.3 6.1 0.00 0.01 0.01 100 1008.3
20260504012505 68 265 4.3 6.1 0.00 0.01 0.01 100 1008.1
20260504011506 69 262 5.2 7.0 0.00 0.01 0.01 100 1008.0
20260504011005 69 266 6.1 7.8 0.00 0.01 0.01 100 1007.9
20260504010505 70 271 6.1 7.8 0.00 0.01 0.01 100 1007.8
20260504010005 70 262 6.1 7.8 0.00 0.01 0.01 100 1007.8
20260504005505 71 273 7.0 8.7 0.00 0.01 0.01 100 1007.8
20260504004505 71 266 6.1 8.7 0.00 0.01 0.01 100 1007.8
20260504004005 72 258 5.2 7.8 0.00 0.01 0.01 100 1007.6
20260504001505 73 277 6.1 10.4 0.00 0.01 0.01 100 1007.5
20260504001005 73 284 7.8 11.3 0.00 0.01 0.01 100 1007.7
20260504000506 74 293 8.7 13.9 0.00 0.01 0.01 100 1007.6
20260504000006 74 280 9.6 13.9 0.00 0.01 0.01 100 1007.6
20260503235505 74 293 11.3 14.8 0.00 0.01 0.01 100 1007.4
20260503233505 75 292 12.2 17.4 0.00 0.01 0.01 100 1007.6
20260503232505 75 267 12.2 15.6 0.00 0.01 0.01 100 1007.5
20260503232005 75 291 10.4 17.4 0.00 0.01 0.01 100 1007.5
20260503231505 75 292 13.9 19.1 0.00 0.01 0.01 100 1007.5
20260503231005 76 275 8.7 13.9 0.00 0.01 0.01 100 1007.4
20260503223006 76 261 9.6 14.8 0.00 0.01 0.01 100 1007.3
20260503222505 76 253 11.3 17.4 0.00 0.01 0.01 100 1007.2
20260503221505 77 294 13.9 18.2 0.00 0.01 0.01 100 1007.2
20260503221005 77 253 9.6 15.6 0.00 0.01 0.01 100 1007.3
20260503220005 76 283 7.8 12.2 0.00 0.01 0.01 100 1007.2
20260503215505 76 251 10.4 17.4 0.00 0.01 0.01 100 1007.1
20260503215005 77 249 10.4 17.4 0.00 0.01 0.01 100 1007.1
20260503213506 78 261 8.7 14.8 0.00 0.01 0.01 100 1007.2
20260503211505 77 261 12.2 20.0 0.00 0.01 0.01 100 1007.3
20260503204505 77 294 11.3 22.6 0.00 0.01 0.01 100 1007.6
20260503200505 76 233 8.7 14.8 0.00 0.01 0.01 100 1008.1
20260503195005 75 261 7.0 13.0 0.00 0.01 0.01 100 1008.3
20260503194004 75 241 8.7 17.4 0.00 0.01 0.01 100 1008.7
20260503193505 75 239 8.7 13.0 0.00 0.01 0.01 100 1008.6
20260503185505 72 244 14.8 19.1 0.00 0.01 0.01 100 1009.1
20260503182006 71 222 9.6 14.8 0.00 0.01 0.01 100 1009.8
20260503181505 70 216 5.2 13.9 0.00 0.01 0.01 100 1009.8
20260503180505 68 203 11.3 18.2 0.00 0.01 0.01 100 1010.0
20260503180005 69 205 9.6 17.4 0.00 0.01 0.01 100 1010.1
20260503175504 69 219 8.7 15.6 0.00 0.01 0.01 100 1010.1
20260503175005 68 230 10.4 14.8 0.00 0.01 0.01 100 1010.2
20260503174504 68 224 10.4 19.1 0.00 0.01 0.01 100 1010.3
20260503173504 68 232 8.7 13.0 0.00 0.01 0.01 100 1010.4
20260503172505 66 245 10.4 17.4 0.00 0.01 0.01 100 1010.6
20260503172005 66 212 8.7 14.8 0.00 0.01 0.01 100 1010.6
20260503171504 66 217 11.3 18.2 0.00 0.01 0.01 100 1010.6
20260503170505 65 215 8.7 19.1 0.00 0.01 0.01 100 1010.9
20260503151005 57 200 12.2 20.0 0.00 0.01 0.01 100 1012.2
20260503150505 57 184 12.2 17.4 0.00 0.01 0.01 100 1012.4
20260503130504 48 143 10.4 13.9 0.01 0.01 0.01 100 1014.6
20260503081504 47 190 4.3 7.0 0.00 0.00 0.00 100 1017.0
20260503052504 47 204 4.3 7.8 0.00 0.00 0.00 100 1017.8
20260503052004 47 200 5.2 8.7 0.00 0.00 0.00 100 1017.8
20260503050504 47 214 2.6 4.3 0.00 0.00 0.00 100 1017.9
20260503045504 47 205 4.3 7.0 0.00 0.00 0.00 100 1017.9
20260503045004 47 201 2.6 7.0 0.00 0.00 0.00 100 1017.9
20260503043004 47 190 2.6 4.3 0.00 0.00 0.00 100 1018.0
20260503042503 47 196 2.6 5.2 0.00 0.00 0.00 100 1018.1
20260503042004 47 202 2.6 4.3 0.00 0.00 0.00 100 1018.1
20260503041003 47 204 2.6 4.3 0.00 0.00 0.00 100 1018.2